Home   Weather   Barnstable   Past weeks
Flag for USA

Past Weather in Barnstable, Massachusetts, USA — Yesterday and Last 2 Weeks

Now
55 °F

Passing clouds.


Feels Like: 54 °F
Forecast: 58 / 52 °F
Wind: 5 mph from Southeast

Location: Barnstable Municipal-Boardman Airport

Current Time: Oct 20, 2019 at 8:30:47 pm

Latest Report: Oct 20, 2019 at 7:56 pm


Visibility: 10 mi

Pressure: 30.04 "Hg

Humidity: 74%

Dew Point: 47 °F

Location of BarnstableLocation

Past Weather in Barnstable — Graph

°F

Barnstable Temperature Yesterday

Maximum temperature yesterday: 58 °F (at 3:56 pm)
Minimum temperature yesterday: 39 °F (at 11:56 pm)
Average temperature yesterday: 48 °F

High & Low Weather Summary for the Past Weeks

 TemperatureHumidityPressure
High73 °F (Oct 7, 10:56 am)93% (Oct 8, 1:36 am)30.42 "Hg (Oct 8, 1:36 am)
Low34 °F (Oct 20, 4:56 am)38% (Oct 15, 3:56 pm)28.92 "Hg (Oct 17, 4:56 am)
Average56 °F79%29.98 "Hg
* Reported Oct 5 6:56 pm — Oct 20 6:56 pm, Barnstable. Weather by CustomWeather, © 2019

Note: Actual official high and low records may vary slightly from our data, if they occured in-between our weather recording intervals... More about our weather records

Advertising

Barnstable Weather History for the Previous 24 Hours

Scroll right to see more
 ConditionsComfort  
Time TempWeatherWind HumidityBarometerVisibility
6:56 pm
Sun, Oct 20
54 °FPassing clouds.3 mph77%30.04 "Hg10 mi
5:56 pm55 °FClear.No wind74%30.05 "Hg10 mi
4:56 pm56 °FSunny.3 mph72%30.06 "Hg10 mi
3:56 pm58 °FSunny.5 mph65%30.06 "Hg10 mi
2:56 pm59 °FSunny.6 mph58%30.06 "Hg10 mi
1:56 pm60 °FSunny.7 mph53%30.06 "Hg10 mi
12:56 pm61 °FSunny.7 mph58%30.07 "Hg10 mi
11:56 am60 °FSunny.10 mph62%30.09 "Hg10 mi
10:56 am59 °FSunny.7 mph67%30.09 "Hg10 mi
9:56 am55 °FSunny.3 mph80%30.09 "Hg10 mi
8:56 am51 °FSunny.No wind83%30.08 "Hg10 mi
7:56 am38 °FSunny.No wind86%30.06 "Hg10 mi
6:56 am34 °FClear.No wind88%30.07 "Hg10 mi
5:56 am34 °FClear.No wind88%30.05 "Hg10 mi
4:56 am34 °FClear.No wind88%30.05 "Hg10 mi
3:56 am35 °FClear.No wind88%30.05 "Hg10 mi
2:56 am36 °FClear.No wind85%30.04 "Hg10 mi
1:56 am37 °FChilly.No wind86%30.04 "Hg10 mi
12:56 am37 °FClear.No wind89%30.04 "Hg10 mi
11:56 pm
Sat, Oct 19
39 °FClear.No wind86%30.04 "Hg10 mi
10:56 pm40 °FClear.No wind86%30.04 "Hg10 mi
9:56 pm40 °FClear.No wind86%30.03 "Hg10 mi
8:56 pm42 °FClear.No wind82%30.03 "Hg10 mi
Weather by CustomWeather, © 2019

See weather overview